Location: Aiyekoto
(8.4333°N, 4.3667°E)
Time: 13:04:37
(UTC+00:00)

A-11 Canister half - All Passes

Search period start: 26 September 2020 00:00
Search period end: 06 October 2020 00:00
Orbit: 1527 x 1682 km, 47.3° (Epoch: 25 September)

Date Brightness Start Highest point End Pass type
(mag) Time Alt. Az. Time Alt. Az. Time Alt. Az.
26 Sep - 04:29:45 10° NNE 04:32:27 11° NE 04:35:09 10° NE visible
26 Sep - 06:29:10 10° NNW 06:38:52 57° NE 06:48:44 10° SE daylight
26 Sep - 08:35:08 10° WNW 08:43:46 33° SW 08:52:32 10° S daylight
26 Sep - 19:26:17 10° SSW 19:35:23 56° SE 19:44:22 10° NE visible
26 Sep - 21:32:22 10° WSW 21:40:19 32° NW 21:48:20 10° NNE visible
27 Sep - 04:09:35 10° NNE 04:10:39 10° NE 04:11:43 10° NE visible
27 Sep - 06:07:35 10° NNW 06:17:11 53° NE 06:26:57 10° ESE daylight
27 Sep - 08:13:16 10° WNW 08:22:05 36° SW 08:31:04 10° S daylight
27 Sep - 19:04:44 10° SSW 19:13:45 52° SE 19:22:39 10° NE visible
27 Sep - 21:10:30 10° WSW 21:18:39 34° NW 21:26:50 10° NNE visible
28 Sep - 05:46:02 10° NNW 05:55:29 49° NE 06:05:08 10° ESE daylight
28 Sep - 07:51:26 10° WNW 08:00:25 38° SW 08:09:34 10° SSE daylight
28 Sep - 18:43:12 10° SSW 18:52:08 48° SE 19:00:56 10° ENE visible
28 Sep - 20:48:39 10° WSW 20:56:58 36° NW 21:05:19 10° NNE visible
29 Sep - 05:24:28 10° NNW 05:33:48 46° NE 05:43:19 10° ESE daylight
29 Sep - 07:29:37 10° WNW 07:38:45 41° SW 07:48:04 10° SSE daylight
29 Sep - 18:21:41 10° SSW 18:30:31 45° SE 18:39:10 10° ENE visible
29 Sep - 20:26:50 10° WSW 20:35:19 39° NW 20:43:48 10° NNE visible
30 Sep - 05:02:55 10° NNW 05:12:07 43° NE 05:21:29 10° ESE visible
30 Sep - 07:07:49 10° WNW 07:17:05 44° SW 07:26:33 10° SSE daylight
30 Sep - 18:00:11 10° SSW 18:08:53 42° SE 18:17:25 10° ENE visible
30 Sep - 20:05:01 10° WSW 20:13:39 42° NW 20:22:17 10° NNE visible
01 Oct - 04:41:24 10° NNW 04:50:25 40° NE 04:59:38 10° ESE visible
01 Oct - 06:46:03 10° WNW 06:55:25 47° SW 07:05:01 10° SSE daylight
01 Oct - 17:38:41 10° SSW 17:47:15 39° SE 17:55:39 10° ENE visible
01 Oct - 19:43:13 10° WSW 19:52:00 45° NW 20:00:45 10° NNE visible
02 Oct - 04:19:53 10° NNW 04:28:43 38° NE 04:37:45 10° ESE visible
02 Oct - 06:24:17 10° NW 06:33:45 51° SW 06:43:27 10° SSE daylight
02 Oct - 17:17:13 10° SSW 17:25:37 36° SE 17:33:50 10° ENE daylight
02 Oct - 19:21:27 10° WSW 19:30:21 48° NW 19:39:12 10° NNE visible
03 Oct - 03:58:22 10° NNW 04:07:02 35° NE 04:15:52 10° ESE visible
03 Oct - 06:02:32 10° NW 06:12:05 54° SW 06:21:53 10° SSE daylight
03 Oct - 16:55:45 10° S 17:03:59 33° SE 17:12:01 10° ENE daylight
03 Oct - 18:59:40 10° WSW 19:08:42 52° NW 19:17:39 10° NNE visible
04 Oct - 03:36:52 10° NNW 03:45:19 33° NE 03:53:57 10° ESE visible
04 Oct - 05:40:49 10° NW 05:50:25 58° SW 06:00:18 10° SSE daylight
04 Oct - 16:34:18 10° S 16:42:20 31° SE 16:50:11 10° ENE daylight
04 Oct - 18:37:55 10° SW 18:47:03 55° NW 18:56:06 10° NNE visible
04 Oct - 20:52:45 10° NW 20:53:18 10° NW 20:53:51 10° NNW visible
05 Oct - 03:15:23 10° NNW 03:23:37 31° NE 03:32:00 10° ESE visible
05 Oct - 05:19:06 10° NW 05:28:45 62° SW 05:38:41 10° SSE daylight
05 Oct - 16:12:52 10° S 16:20:42 29° SE 16:28:20 10° ENE daylight
05 Oct - 18:16:10 10° SW 18:25:25 59° NW 18:34:32 10° NNE visible
05 Oct - 20:29:08 10° NW 20:31:31 11° NW 20:33:55 10° NNW visible
